Dewpoint
66 65 65 65 63 62 62 60 58 54 52 53 53 55 55 55 54 53 52 51 51 50 50 51 50 50 50 51 52 51 50 49 49 48 47 47 47 47
65 65 64 64 63 62 60 60 59 58 55 54 54 54 55 55 54 52 52 52 51 49 49 49 48 49 49 50 49 49 49 48 47 46 46 46 45 45
64 63 63 62 61 61 60 59 58 57 55 55 56 56 54 54 53 52 52 52 50 48 47 47 47 47 48 48 47 47 46 45 45 44 44 44 44 43
59 60 59 60 60 60 59 58 57 57 57 55 54 54 55 54 53 52 52 52 50 47 46 46 46 46 46 46 45 44 43 42 42 42 43 42 41 42
53 54 57 59 58 59 58 57 57 57 57 55 53 55 55 54 53 52 52 50 48 47 45 45 46 45 45 44 43 41 41 40 39 40 40 41 41 41
48 48 48 46 45 47 51 56 57 56 56 55 54 54 54 54 53 51 48 48 46 46 45 45 45 45 45 43 42 41 40 39 40 40 40 40 40 41
43 44 43 41 42 43 45 45 46 48 51 53 52 52 50 49 50 50 48 47 46 46 45 45 45 45 44 43 42 41 40 40 41 41 41 40 40 39
40 40 40 39 39 41 41 40 39 41 42 44 46 48 49 50 50 49 48 44 43 47 44 43 44 43 43 43 42 41 41 40 40 39 39 40 39 39
38 38 39 38 37 39 39 39 40 39 39 41 40 41 42 43 46 46 46 45 43 45 44 41 43 42 42 41 40 40 40 39 39 39 39 39 39 39
38 36 36 36 35 36 37 37 37 38 38 39 40 41 42 43 43 43 42 41 41 42 42 38 39 39 39 38 38 38 38 38 39 39 40 40 40 40
38 37 35 35 35 35 35 35 35 35 36 37 38 39 41 42 42 40 40 39 37 38 39 38 37 36 36 36 36 37 38 38 39 40 41 40 40 40
38 37 37 36 35 35 34 34 33 34 35 36 37 38 39 40 40 42 40 36 34 34 39 36 36 35 32 36 35 36 36 39 39 39 39 39 39 39
35 35 36 37 35 35 34 34 33 34 34 35 35 36 37 38 38 39 40 38 37 36 38 37 35 33 33 33 34 35 35 36 38 38 38 38 39 40
32 33 35 35 35 35 33 33 33 33 34 33 34 34 35 35 37 37 38 38 38 38 38 37 35 34 33 32 32 33 35 35 37 37 37 38 37 39
33 34 34 35 35 34 34 33 32 32 32 32 32 33 34 36 36 36 36 35 35 36 37 36 36 35 35 33 32 32 32 34 36 36 36 36 36 37
32 32 34 34 34 35 34 33 33 33 32 32 32 33 34 34 34 34 33 33 32 32 34 35 36 35 34 34 33 31 32 32 35 35 36 36 35 35
32 33 33 33 32 32 32 32 32 33 32 32 32 32 32 32 32 33 32 32 31 30 30 32 33 33 32 33 31 31 31 32 34 35 34 33 32 32
32 31 31 31 31 31 31 31 32 32 33 33 32 32 32 32 31 31 32 31 31 30 30 30 31 31 31 31 32 31 31 31 32 34 34 31 31 31
31 30 30 31 31 31 31 31 31 32 33 32 32 31 31 31 31 30 31 31 30 30 30 31 31 31 29 26 31 32 31 31 32 31 32 32 29 29
26 28 28 30 31 31 31 31 31 32 32 31 31 31 31 31 30 30 31 30 31 30 30 30 31 31 29 27 27 28 33 32 31 29 28 29 30 31
23 24 26 29 31 31 31 31 31 31 31 31 31 31 31 31 30 31 31 31 31 30 28 29 31 33 31 32 28 27 29 33 33 30 31 29 28 29
21 23 26 29 31 31 31 31 31 31 31 31 31 31 31 31 31 31 31 30 31 30 30 31 31 31 31 28 26 26 28 30 31 32 33 31 29 26
21 26 27 30 31 31 31 31 31 31 31 31 31 31 31 30 31 32 31 31 31 31 30 29 30 32 30 29 27 28 28 30 30 29 30 32 31 30
Wind_Speed
20 21 21 18 11 16 16 13 12 11 13 11 12 16 18 19 22 20 23 25 33 34 32 33 31 28 24 22 19 17 18 18 17 16 15 17 19 20
18 18 18 14 10 10 14 15 15 19 16 16 14 14 16 16 18 21 23 26 31 33 34 33 30 26 25 22 20 20 18 17 16 16 17 20 22 21
19 19 20 11 10 9 12 12 15 15 19 10 16 13 15 19 14 18 21 19 19 31 32 30 29 27 25 24 21 19 18 17 17 17 20 22 22 21
22 13 21 3 10 14 15 19 19 19 19 25 19 11 17 15 19 20 19 20 21 26 33 33 30 27 27 23 21 20 21 21 20 20 18 20 21 22
15 20 20 13 14 16 19 18 16 20 19 17 22 12 16 13 14 15 19 20 19 24 32 32 29 30 27 23 21 21 22 22 21 22 22 22 18 18
16 17 18 19 18 18 16 16 19 19 15 19 23 21 17 16 17 16 12 12 17 14 20 23 27 27 25 23 23 26 25 25 23 22 21 22 20 22
18 19 19 20 20 19 12 13 13 12 11 16 19 19 15 12 17 14 21 20 12 12 18 16 17 16 17 20 18 22 25 22 20 19 19 22 24 22
19 21 18 23 23 22 19 19 18 13 11 8 10 15 13 20 18 20 20 11 12 12 18 16 16 15 12 13 16 17 16 14 13 16 22 25 26 22
18 16 15 16 20 17 16 16 17 21 18 13 11 10 7 8 7 3 5 8 8 1 9 11 9 14 10 9 10 7 8 13 14 19 24 26 26 26
14 15 15 16 19 18 15 15 13 14 14 12 13 13 12 12 12 6 7 10 9 11 6 4 3 2 3 1 1 5 10 16 18 23 24 25 21 22
12 10 12 13 16 18 13 14 13 13 13 14 12 12 11 12 9 7 4 1 3 2 2 6 2 4 1 3 3 6 12 14 16 18 11 14 17 21
10 11 10 12 13 13 12 12 13 12 13 15 12 11 11 7 9 6 2 3 4 2 1 4 2 3 2 3 4 7 8 7 8 8 10 11 12 13
14 14 13 14 13 12 11 9 9 12 11 10 10 9 9 9 8 7 5 3 4 3 2 4 3 3 2 2 2 4 6 8 6 7 10 15 9 12
15 14 14 16 13 12 10 11 12 11 9 9 9 8 7 6 5 6 5 6 4 6 5 5 4 5 4 0 5 5 5 7 4 8 11 9 17 15
15 18 20 15 14 12 11 10 8 8 9 8 8 7 5 5 3 1 6 9 9 7 6 4 3 3 3 3 3 2 4 6 8 7 9 11 13 10
14 14 13 12 11 10 11 10 8 7 8 9 8 8 5 3 3 2 2 1 1 2 5 4 1 2 3 5 6 2 0 2 5 5 4 15 15 16
16 12 11 11 12 11 11 10 9 8 8 8 8 8 6 4 5 3 3 3 3 4 3 1 5 7 7 1 1 2 4 5 7 3 10 17 18 16
12 13 13 12 11 11 11 9 9 9 7 8 8 8 8 7 7 5 4 5 5 5 4 3 6 5 2 8 12 6 6 9 8 9 11 17 18 16
11 13 15 13 12 11 10 9 9 8 7 7 8 8 8 8 7 7 7 7 6 5 4 6 6 3 4 2 2 15 7 7 13 13 13 12 17 15
15 17 17 17 13 11 10 9 9 8 7 8 7 7 8 7 6 7 8 7 7 4 4 5 5 3 5 7 4 4 10 10 16 18 21 21 21 26
17 19 17 19 14 11 9 8 7 8 8 8 7 6 7 7 7 8 9 8 7 5 6 7 5 5 9 10 9 6 11 16 9 21 19 22 19 16
21 22 19 17 15 10 8 7 7 6 6 6 6 6 6 6 7 8 9 8 7 7 5 7 8 10 3 8 13 11 12 15 19 19 14 12 11 11
25 21 22 15 10 7 6 5 5 5 5 7 6 5 5 4 6 8 8 7 8 7 9 7 6 3 9 12 18 15 20 17 16 20 19 29 33 33
Wind_Direction
251 260 256 251 218 210 237 225 244 265 236 245 232 219 214 215 227 221 222 224 222 219 211 200 198 200 202 204 205 209 215 221 228 235 242 249 257 259
252 258 254 248 223 200 211 221 219 242 256 217 229 229 214 223 223 217 223 222 222 217 207 197 193 195 199 199 200 208 212 220 228 236 246 251 254 258
278 253 242 220 232 233 230 224 219 220 251 266 240 237 231 223 226 216 222 219 218 210 198 191 191 192 194 197 201 209 214 222 233 241 248 252 256 257
340 318 317 321 255 256 238 226 223 211 235 252 261 262 243 227 222 219 215 215 208 199 192 190 192 191 193 192 199 212 225 229 236 237 245 254 257 265
359 7 338 294 259 244 251 251 247 252 228 241 264 271 255 239 237 223 208 209 201 189 189 191 190 188 188 192 200 217 231 238 237 239 241 242 240 256
15 11 21 14 4 359 349 312 278 262 237 222 250 258 245 240 233 224 206 209 183 179 185 185 183 188 189 193 206 219 230 234 237 238 241 244 240 239
24 25 21 15 13 20 7 356 348 335 317 280 257 252 234 215 226 208 204 188 191 172 178 180 183 185 197 200 219 225 232 236 237 240 241 249 247 241
21 29 19 20 17 20 33 40 42 22 5 330 310 306 277 238 225 208 200 183 194 193 183 185 174 181 191 195 209 218 219 230 245 253 255 252 248 248
26 16 11 12 14 10 17 27 29 29 30 14 12 356 334 350 327 289 276 225 225 30 156 169 157 167 168 156 171 195 245 269 272 275 277 274 264 253
25 20 12 4 4 3 2 9 13 18 12 13 17 16 25 37 52 59 67 96 70 57 42 92 66 110 125 208 281 299 309 300 292 283 279 274 267 256
10 15 14 4 358 5 9 2 3 360 349 354 4 3 8 22 37 33 46 59 66 70 24 145 179 112 10 299 298 311 310 298 295 292 287 296 277 262
335 341 347 349 351 2 1 354 352 346 347 350 354 1 4 3 14 25 260 156 117 137 220 106 104 119 252 253 288 319 319 310 311 6 357 316 282 265
338 336 330 335 339 345 358 344 326 322 327 337 338 343 348 359 23 26 56 107 135 103 181 112 136 146 188 298 305 316 342 350 352 17 355 360 328 250
324 313 313 317 319 327 326 326 325 320 318 325 335 338 333 339 13 44 61 84 77 148 117 115 150 177 167 121 269 336 336 5 25 347 339 355 22 65
315 309 312 316 315 316 309 314 318 321 315 315 319 311 297 299 285 83 91 85 77 71 70 69 126 143 160 226 275 282 330 359 36 25 0 33 32 48
322 319 318 324 326 311 325 323 317 309 308 302 300 299 294 291 272 178 174 142 133 86 39 42 79 205 223 243 243 264 4 306 46 45 10 59 45 40
325 319 325 330 328 329 325 325 328 316 303 295 285 274 274 276 258 220 201 189 184 170 174 61 72 93 69 167 243 176 139 92 82 26 84 68 53 54
328 318 318 314 312 312 314 318 321 320 310 299 289 276 263 262 253 219 198 198 183 176 180 149 141 119 104 60 37 131 99 100 80 74 91 100 77 50
326 333 320 304 303 303 306 313 312 315 308 311 310 299 280 263 240 216 200 184 184 190 187 170 184 181 171 134 37 29 120 109 102 77 81 84 99 84
338 326 327 311 298 298 303 304 307 311 309 300 296 297 285 265 235 209 189 182 186 172 182 179 193 230 172 160 124 51 55 128 118 107 96 85 90 91
327 320 312 311 298 293 297 299 300 300 299 294 282 295 285 259 236 199 181 187 181 181 192 191 183 128 121 112 106 76 55 65 103 126 125 111 107 104
327 315 300 300 295 290 295 300 298 303 314 314 308 308 295 254 222 190 182 185 190 184 172 150 143 142 123 130 121 109 97 82 74 80 79 96 129 124
331 332 333 303 304 326 326 331 327 330 338 331 315 318 301 262 207 179 173 172 171 159 147 143 143 101 117 131 128 120 116 108 104 91 82 94 94 100